Time,TemperatureF,DewpointF,PressureIn,WindDirection,WindDirectionDegrees,WindSpeedMPH,WindSpeedGustMPH,Humidity,HourlyPrecipIn,Conditions,Clouds,dailyrainin,SoftwareType,DateUTC
2013-06-17 00:01:00,70.2,0.0,30.05,SE,143,0.0,0.0,0,0.00,,CLR,0.00,VWS V14.01,2013-06-17 04:01:00,
2013-06-17 00:06:00,70.1,0.0,30.05,SE,144,0.0,0.0,0,0.00,,CLR,0.00,VWS V14.01,2013-06-17 04:06:00,
2013-06-17 00:11:00,70.1,0.0,30.05,SE,143,0.0,0.0,0,0.00,,CLR,0.00,VWS V14.01,2013-06-17 04:11:00,
2013-06-17 00:16:00,70.0,0.0,30.05,SE,143,0.0,0.0,0,0.00,,CLR,0.00,VWS V14.01,2013-06-17 04:16:00,
2013-06-17 00:21:00,70.0,0.0,30.05,SE,143,0.0,0.0,0,0.00,,CLR,0.00,VWS V14.01,2013-06-17 04:21:00,
2013-06-17 00:26:00,69.9,0.0,30.05,SE,144,0.0,0.0,0,0.00,,CLR,0.00,VWS V14.01,2013-06-17 04:26:00,
2013-06-17 00:31:00,69.8,0.0,30.05,SE,143,0.0,0.0,0,0.00,,CLR,0.00,VWS V14.01,2013-06-17 04:31:00,
2013-06-17 00:36:00,69.6,0.0,30.05,SE,143,0.0,0.0,0,0.00,,CLR,0.00,VWS V14.01,2013-06-17 04:36:00,
2013-06-17 00:41:00,69.6,0.0,30.05,SE,143,0.0,0.0,0,0.00,,CLR,0.00,VWS V14.01,2013-06-17 04:41:00,
2013-06-17 00:46:00,69.7,0.0,30.05,SE,143,0.0,0.0,0,0.00,,CLR,0.00,VWS V14.01,2013-06-17 04:46:00,
2013-06-17 00:51:00,69.7,0.0,30.05,SE,143,0.0,0.0,0,0.00,,CLR,0.00,VWS V14.01,2013-06-17 04:51:00,
2013-06-17 00:56:00,69.6,0.0,30.05,SE,143,0.0,0.0,0,0.00,,CLR,0.00,VWS V14.01,2013-06-17 04:56:00,
2013-06-17 01:01:00,69.7,0.0,30.05,SE,143,0.0,0.0,0,0.00,,CLR,0.00,VWS V14.01,2013-06-17 05:01:00,
2013-06-17 01:06:00,69.8,0.0,30.05,SE,143,0.0,0.0,0,0.00,,CLR,0.00,VWS V14.01,2013-06-17 05:06:00,
2013-06-17 01:11:00,69.7,0.0,30.05,SE,143,0.0,0.0,0,0.00,,CLR,0.00,VWS V14.01,2013-06-17 05:11:00,
2013-06-17 01:16:00,69.7,0.0,30.05,SE,143,0.0,0.0,0,0.00,,CLR,0.00,VWS V14.01,2013-06-17 05:16:00,
2013-06-17 01:21:00,69.6,0.0,30.05,SE,144,0.0,0.0,0,0.00,,CLR,0.00,VWS V14.01,2013-06-17 05:21:00,
2013-06-17 01:26:00,69.7,0.0,30.05,SE,144,0.0,0.0,0,0.00,,CLR,0.00,VWS V14.01,2013-06-17 05:26:00,
2013-06-17 01:31:00,69.6,0.0,30.05,SE,144,0.0,0.0,0,0.00,,CLR,0.00,VWS V14.01,2013-06-17 05:31:00,
2013-06-17 01:36:00,69.6,0.0,30.05,SE,144,0.0,0.0,0,0.00,,CLR,0.00,VWS V14.01,2013-06-17 05:36:00,
2013-06-17 01:41:00,69.6,0.0,30.05,SE,143,0.0,0.0,0,0.00,,CLR,0.00,VWS V14.01,2013-06-17 05:41:00,
2013-06-17 01:46:00,69.6,0.0,30.04,SE,144,0.0,0.0,0,0.00,,CLR,0.00,VWS V14.01,2013-06-17 05:46:00,
2013-06-17 01:51:00,69.5,0.0,30.04,SE,143,0.0,0.0,0,0.00,,CLR,0.00,VWS V14.01,2013-06-17 05:51:00,
2013-06-17 01:56:00,69.4,0.0,30.04,SE,143,0.0,0.0,0,0.00,,CLR,0.00,VWS V14.01,2013-06-17 05:56:00,
2013-06-17 02:01:00,69.2,0.0,30.04,SE,144,0.0,0.0,0,0.00,,CLR,0.00,VWS V14.01,2013-06-17 06:01:00,
2013-06-17 02:06:00,69.2,0.0,30.04,SE,143,0.0,0.0,0,0.00,,CLR,0.00,VWS V14.01,2013-06-17 06:06:00,
2013-06-17 02:11:00,69.1,0.0,30.04,SE,144,0.0,0.0,0,0.00,,CLR,0.00,VWS V14.01,2013-06-17 06:11:00,
2013-06-17 02:16:00,69.1,0.0,30.03,SE,143,0.0,0.0,0,0.00,,CLR,0.00,VWS V14.01,2013-06-17 06:16:00,
2013-06-17 02:21:00,69.1,0.0,30.03,SE,144,0.0,0.0,0,0.00,,CLR,0.00,VWS V14.01,2013-06-17 06:21:00,
2013-06-17 02:26:00,69.0,0.0,30.03,SE,144,0.0,0.0,0,0.00,,CLR,0.00,VWS V14.01,2013-06-17 06:26:00,
2013-06-17 02:31:00,68.9,0.0,30.03,SE,143,0.0,0.0,0,0.00,,CLR,0.00,VWS V14.01,2013-06-17 06:31:00,
2013-06-17 02:36:00,69.0,0.0,30.03,SE,143,0.0,0.0,0,0.00,,CLR,0.00,VWS V14.01,2013-06-17 06:36:00,
2013-06-17 02:41:00,68.9,0.0,30.03,SE,143,0.0,0.0,0,0.00,,CLR,0.00,VWS V14.01,2013-06-17 06:41:00,
2013-06-17 02:46:00,68.8,0.0,30.03,SE,143,0.0,0.0,0,0.00,,CLR,0.00,VWS V14.01,2013-06-17 06:46:00,
2013-06-17 02:51:00,68.7,0.0,30.03,SE,143,0.0,0.0,0,0.00,,CLR,0.00,VWS V14.01,2013-06-17 06:51:00,
2013-06-17 02:56:00,68.6,0.0,30.03,SE,143,0.0,0.0,0,0.00,,CLR,0.00,VWS V14.01,2013-06-17 06:56:00,
2013-06-17 03:01:00,68.6,0.0,30.03,SE,143,0.0,0.0,0,0.00,,CLR,0.00,VWS V14.01,2013-06-17 07:01:00,
2013-06-17 03:06:00,68.6,0.0,30.03,SE,143,0.0,0.0,0,0.00,,CLR,0.00,VWS V14.01,2013-06-17 07:06:00,
2013-06-17 03:11:00,68.5,0.0,30.02,SE,144,0.0,0.0,0,0.00,,CLR,0.00,VWS V14.01,2013-06-17 07:11:00,
2013-06-17 03:16:00,68.6,0.0,30.03,SE,143,0.0,0.0,0,0.00,,CLR,0.00,VWS V14.01,2013-06-17 07:16:00,
2013-06-17 03:21:00,68.5,0.0,30.03,SE,144,0.0,0.0,0,0.00,,CLR,0.00,VWS V14.01,2013-06-17 07:21:00,
2013-06-17 03:26:00,68.5,0.0,30.03,SE,144,0.0,0.0,0,0.00,,CLR,0.00,VWS V14.01,2013-06-17 07:26:00,
2013-06-17 03:31:00,68.4,0.0,30.03,SE,143,0.0,0.0,0,0.00,,CLR,0.00,VWS V14.01,2013-06-17 07:31:00,
2013-06-17 03:36:00,68.5,0.0,30.03,SE,143,0.0,0.0,0,0.00,,CLR,0.00,VWS V14.01,2013-06-17 07:36:00,
2013-06-17 03:41:00,68.5,0.0,30.03,SE,143,0.0,0.0,0,0.00,,CLR,0.00,VWS V14.01,2013-06-17 07:41:00,
2013-06-17 03:46:00,68.5,0.0,30.02,SE,143,0.0,0.0,0,0.00,,CLR,0.00,VWS V14.01,2013-06-17 07:46:00,
2013-06-17 03:51:00,68.5,0.0,30.03,SE,143,0.0,0.0,0,0.00,,CLR,0.00,VWS V14.01,2013-06-17 07:51:00,
2013-06-17 03:56:00,68.4,0.0,30.03,SE,143,0.0,0.0,0,0.00,,CLR,0.00,VWS V14.01,2013-06-17 07:56:00,
2013-06-17 04:01:00,68.4,0.0,30.02,SE,143,0.0,0.0,0,0.00,,CLR,0.00,VWS V14.01,2013-06-17 08:01:00,
2013-06-17 04:06:00,68.4,0.0,30.02,SE,144,0.0,0.0,0,0.00,,CLR,0.00,VWS V14.01,2013-06-17 08:06:00,
2013-06-17 04:11:00,68.4,0.0,30.02,SE,143,0.0,0.0,0,0.00,,CLR,0.00,VWS V14.01,2013-06-17 08:11:00,
2013-06-17 04:16:00,68.4,0.0,30.02,SE,143,0.0,0.0,0,0.00,,CLR,0.00,VWS V14.01,2013-06-17 08:16:00,
2013-06-17 04:21:00,68.4,0.0,30.02,SE,143,0.0,0.0,0,0.00,,CLR,0.00,VWS V14.01,2013-06-17 08:21:00,
2013-06-17 04:26:00,68.4,0.0,30.03,SE,143,0.0,0.0,0,0.00,,CLR,0.00,VWS V14.01,2013-06-17 08:26:00,
2013-06-17 04:31:00,68.4,0.0,30.03,SE,143,0.0,0.0,0,0.00,,CLR,0.00,VWS V14.01,2013-06-17 08:31:00,
2013-06-17 04:36:00,68.4,0.0,30.03,SE,143,0.0,0.0,0,0.00,,CLR,0.00,VWS V14.01,2013-06-17 08:36:00,
2013-06-17 04:41:00,68.4,0.0,30.03,SE,143,0.0,0.0,0,0.00,,CLR,0.00,VWS V14.01,2013-06-17 08:41:00,
2013-06-17 04:46:00,68.5,0.0,30.03,SE,143,0.0,0.0,0,0.00,,CLR,0.00,VWS V14.01,2013-06-17 08:46:00,
2013-06-17 04:51:00,68.5,0.0,30.03,SE,144,0.0,0.0,0,0.00,,CLR,0.00,VWS V14.01,2013-06-17 08:51:00,
2013-06-17 04:56:00,68.5,0.0,30.03,SE,144,0.0,0.0,0,0.00,,CLR,0.00,VWS V14.01,2013-06-17 08:56:00,
2013-06-17 05:01:00,68.5,0.0,30.03,SE,144,0.0,0.0,0,0.00,,CLR,0.00,VWS V14.01,2013-06-17 09:01:00,
2013-06-17 05:06:00,68.6,0.0,30.03,SE,143,0.0,0.0,0,0.00,,CLR,0.00,VWS V14.01,2013-06-17 09:06:00,
2013-06-17 05:11:00,68.7,0.0,30.03,SE,143,0.0,0.0,0,0.00,,CLR,0.00,VWS V14.01,2013-06-17 09:11:00,
2013-06-17 05:16:00,68.8,0.0,30.04,SE,145,0.0,1.0,0,0.00,,CLR,0.00,VWS V14.01,2013-06-17 09:16:00,
2013-06-17 05:21:00,68.9,0.0,30.04,SSE,163,0.0,1.0,0,0.00,,CLR,0.00,VWS V14.01,2013-06-17 09:21:00,
2013-06-17 05:26:00,69.0,0.0,30.04,SSW,193,0.0,1.0,0,0.00,,CLR,0.00,VWS V14.01,2013-06-17 09:26:00,
2013-06-17 05:31:00,69.3,0.0,30.05,South,172,0.0,1.0,0,0.00,,CLR,0.00,VWS V14.01,2013-06-17 09:31:00,
2013-06-17 05:36:00,69.6,0.0,30.05,South,189,0.0,1.0,0,0.00,,CLR,0.00,VWS V14.01,2013-06-17 09:36:00,
2013-06-17 05:41:00,69.7,0.0,30.05,SSE,155,2.0,3.0,0,0.00,,CLR,0.00,VWS V14.01,2013-06-17 09:41:00,
2013-06-17 05:46:00,70.1,0.0,30.05,SE,134,2.0,4.0,0,0.00,,CLR,0.00,VWS V14.01,2013-06-17 09:46:00,
2013-06-17 05:51:00,70.3,0.0,30.05,WSW,246,0.0,4.0,0,0.00,,CLR,0.00,VWS V14.01,2013-06-17 09:51:00,
2013-06-17 05:56:00,70.3,0.0,30.04,WSW,246,0.0,4.0,0,0.00,,CLR,0.00,VWS V14.01,2013-06-17 09:56:00,
2013-06-17 06:01:00,70.2,0.0,30.04,WSW,246,0.0,0.0,0,0.00,,CLR,0.00,VWS V14.01,2013-06-17 10:01:00,
2013-06-17 06:06:00,70.1,0.0,30.03,SE,129,0.0,0.0,0,0.00,,CLR,0.00,VWS V14.01,2013-06-17 10:06:00,
2013-06-17 06:11:00,70.1,0.0,30.03,South,170,0.0,1.0,0,0.02,,CLR,0.02,VWS V14.01,2013-06-17 10:11:00,
2013-06-17 06:16:00,69.8,0.0,30.03,ENE,70,0.0,1.0,0,0.03,,CLR,0.03,VWS V14.01,2013-06-17 10:16:00,
2013-06-17 06:21:00,69.7,0.0,30.04,ENE,70,0.0,1.0,0,0.03,,CLR,0.03,VWS V14.01,2013-06-17 10:21:00,
2013-06-17 06:26:00,69.5,0.0,30.04,ENE,71,0.0,1.0,0,0.04,,CLR,0.04,VWS V14.01,2013-06-17 10:26:00,
2013-06-17 06:31:00,69.4,0.0,30.04,ENE,70,0.0,0.0,0,0.04,,CLR,0.04,VWS V14.01,2013-06-17 10:31:00,
2013-06-17 06:36:00,69.3,0.0,30.04,ENE,71,0.0,0.0,0,0.04,,CLR,0.04,VWS V14.01,2013-06-17 10:36:00,
2013-06-17 06:41:00,69.2,0.0,30.04,ENE,70,0.0,0.0,0,0.04,,CLR,0.04,VWS V14.01,2013-06-17 10:41:00,
2013-06-17 06:46:00,69.0,0.0,30.03,ENE,70,0.0,0.0,0,0.04,,CLR,0.04,VWS V14.01,2013-06-17 10:46:00,
2013-06-17 06:51:00,69.0,0.0,30.02,ENE,70,0.0,1.0,0,0.04,,CLR,0.04,VWS V14.01,2013-06-17 10:51:00,
2013-06-17 06:56:00,69.1,0.0,30.02,ENE,71,0.0,1.0,0,0.04,,CLR,0.04,VWS V14.01,2013-06-17 10:56:00,
2013-06-17 07:01:00,69.0,0.0,30.02,ENE,70,0.0,0.0,0,0.04,,CLR,0.04,VWS V14.01,2013-06-17 11:01:00,
2013-06-17 07:06:00,69.0,0.0,30.01,ENE,70,0.0,0.0,0,0.04,,CLR,0.04,VWS V14.01,2013-06-17 11:06:00,
2013-06-17 07:11:00,69.0,0.0,30.00,ENE,70,0.0,1.0,0,0.04,,CLR,0.04,VWS V14.01,2013-06-17 11:11:00,
2013-06-17 07:17:00,69.0,0.0,30.01,ENE,70,0.0,1.0,0,0.04,,CLR,0.04,VWS V14.01,2013-06-17 11:17:00,
2013-06-17 07:22:00,69.1,0.0,30.01,ENE,70,0.0,1.0,0,0.04,,CLR,0.04,VWS V14.01,2013-06-17 11:22:00,
2013-06-17 07:27:00,69.2,0.0,30.01,ENE,70,0.0,1.0,0,0.04,,CLR,0.04,VWS V14.01,2013-06-17 11:27:00,
2013-06-17 07:32:00,69.4,0.0,30.01,ENE,70,0.0,1.0,0,0.00,,CLR,0.04,VWS V14.01,2013-06-17 11:32:00,
2013-06-17 07:37:00,69.6,0.0,30.01,ESE,113,1.0,1.0,0,0.00,,CLR,0.04,VWS V14.01,2013-06-17 11:37:00,
2013-06-17 07:42:00,69.8,0.0,30.01,SE,137,0.0,1.0,0,0.00,,CLR,0.04,VWS V14.01,2013-06-17 11:42:00,
2013-06-17 07:47:00,70.2,0.0,30.01,East,96,0.0,2.0,0,0.00,,CLR,0.04,VWS V14.01,2013-06-17 11:47:00,
2013-06-17 07:52:00,70.4,0.0,30.01,East,89,1.0,2.0,0,0.00,,CLR,0.04,VWS V14.01,2013-06-17 11:52:00,
2013-06-17 07:57:00,70.8,0.0,30.01,East,84,0.0,2.0,0,0.00,,CLR,0.04,VWS V14.01,2013-06-17 11:57:00,
2013-06-17 08:02:00,71.1,0.0,30.01,East,84,0.0,0.0,0,0.00,,CLR,0.04,VWS V14.01,2013-06-17 12:02:00,
2013-06-17 08:07:00,71.4,0.0,30.01,East,96,0.0,1.0,0,0.00,,CLR,0.04,VWS V14.01,2013-06-17 12:07:00,
2013-06-17 08:12:00,71.5,0.0,30.01,East,96,0.0,1.0,0,0.00,,CLR,0.04,VWS V14.01,2013-06-17 12:12:00,
2013-06-17 08:17:00,71.6,0.0,30.01,ENE,65,0.0,2.0,0,0.00,,CLR,0.04,VWS V14.01,2013-06-17 12:17:00,
2013-06-17 08:22:00,71.6,0.0,30.01,SSE,148,0.0,2.0,0,0.00,,CLR,0.04,VWS V14.01,2013-06-17 12:22:00,
2013-06-17 08:27:00,71.6,0.0,30.02,SSE,148,0.0,2.0,0,0.00,,CLR,0.04,VWS V14.01,2013-06-17 12:27:00,
2013-06-17 08:32:00,71.6,0.0,30.02,SE,143,0.0,1.0,0,0.00,,CLR,0.04,VWS V14.01,2013-06-17 12:32:00,
2013-06-17 08:37:00,71.5,0.0,30.02,SE,143,0.0,1.0,0,0.00,,CLR,0.04,VWS V14.01,2013-06-17 12:37:00,
2013-06-17 08:42:00,71.4,0.0,30.03,South,191,0.0,2.0,0,0.00,,CLR,0.04,VWS V14.01,2013-06-17 12:42:00,
2013-06-17 08:47:00,71.2,0.0,30.03,South,176,0.0,2.0,0,0.00,,CLR,0.04,VWS V14.01,2013-06-17 12:47:00,
2013-06-17 08:52:00,71.3,0.0,30.03,South,176,0.0,2.0,0,0.00,,CLR,0.04,VWS V14.01,2013-06-17 12:52:00,
2013-06-17 08:57:00,71.3,0.0,30.03,SSE,160,1.0,2.0,0,0.00,,CLR,0.04,VWS V14.01,2013-06-17 12:57:00,
2013-06-17 09:02:00,71.4,0.0,30.03,SW,222,0.0,1.0,0,0.00,,CLR,0.04,VWS V14.01,2013-06-17 13:02:00,
2013-06-17 09:07:00,71.4,0.0,30.04,ESE,110,0.0,3.0,0,0.00,,CLR,0.04,VWS V14.01,2013-06-17 13:07:00,
2013-06-17 09:12:00,71.4,0.0,30.03,South,183,0.0,3.0,0,0.00,,CLR,0.04,VWS V14.01,2013-06-17 13:12:00,
2013-06-17 09:17:00,71.5,0.0,30.03,SW,219,1.0,3.0,0,0.00,,CLR,0.04,VWS V14.01,2013-06-17 13:17:00,
2013-06-17 09:22:00,71.5,0.0,30.03,SSE,158,0.0,3.0,0,0.00,,CLR,0.04,VWS V14.01,2013-06-17 13:22:00,
2013-06-17 09:27:00,71.5,0.0,30.03,SW,228,0.0,3.0,0,0.00,,CLR,0.04,VWS V14.01,2013-06-17 13:27:00,
2013-06-17 09:32:00,71.7,0.0,30.03,SSE,152,2.0,3.0,0,0.00,,CLR,0.04,VWS V14.01,2013-06-17 13:32:00,
2013-06-17 09:37:00,72.0,0.0,30.03,South,172,0.0,3.0,0,0.00,,CLR,0.04,VWS V14.01,2013-06-17 13:37:00,
2013-06-17 09:42:00,72.4,0.0,30.03,SSW,193,0.0,3.0,0,0.00,,CLR,0.04,VWS V14.01,2013-06-17 13:42:00,
2013-06-17 09:47:00,72.7,0.0,30.03,SSW,194,0.0,3.0,0,0.00,,CLR,0.04,VWS V14.01,2013-06-17 13:47:00,
2013-06-17 09:52:00,73.2,0.0,30.03,SSW,194,0.0,3.0,0,0.00,,CLR,0.04,VWS V14.01,2013-06-17 13:52:00,
2013-06-17 09:57:00,73.7,0.0,30.03,South,169,0.0,3.0,0,0.00,,CLR,0.04,VWS V14.01,2013-06-17 13:57:00,
2013-06-17 10:02:00,73.9,0.0,30.03,South,191,0.0,0.0,0,0.00,,CLR,0.04,VWS V14.01,2013-06-17 14:02:00,
2013-06-17 10:07:00,74.3,0.0,30.03,South,190,1.0,1.0,0,0.00,,CLR,0.04,VWS V14.01,2013-06-17 14:07:00,
2013-06-17 10:12:00,74.4,0.0,30.02,SSE,152,2.0,3.0,0,0.00,,CLR,0.04,VWS V14.01,2013-06-17 14:12:00,
2013-06-17 10:17:00,74.5,0.0,30.02,SSW,193,0.0,3.0,0,0.00,,CLR,0.04,VWS V14.01,2013-06-17 14:17:00,
2013-06-17 10:22:00,74.6,0.0,30.02,SSW,210,0.0,3.0,0,0.00,,CLR,0.04,VWS V14.01,2013-06-17 14:22:00,
2013-06-17 10:27:00,74.9,0.0,30.02,SSW,210,0.0,3.0,0,0.00,,CLR,0.04,VWS V14.01,2013-06-17 14:27:00,
2013-06-17 10:32:00,75.5,0.0,30.03,SSW,210,0.0,0.0,0,0.00,,CLR,0.04,VWS V14.01,2013-06-17 14:32:00,
2013-06-17 10:37:00,76.0,0.0,30.02,SE,134,0.0,1.0,0,0.00,,CLR,0.04,VWS V14.01,2013-06-17 14:37:00,
2013-06-17 10:42:00,76.3,0.0,30.02,SE,136,1.0,1.0,0,0.00,,CLR,0.04,VWS V14.01,2013-06-17 14:42:00,
2013-06-17 10:47:00,76.8,-9.8,30.02,SE,129,1.0,3.0,3,0.00,,CLR,0.04,VWS V14.01,2013-06-17 14:47:00,
2013-06-17 10:52:00,77.5,-30.4,30.02,SE,127,0.0,3.0,1,0.00,,CLR,0.04,VWS V14.01,2013-06-17 14:52:00,
2013-06-17 10:57:00,77.7,41.1,30.02,ESE,122,0.0,3.0,27,0.00,,CLR,0.04,VWS V14.01,2013-06-17 14:57:00,
2013-06-17 11:02:00,78.6,39.9,30.02,SE,124,1.0,1.0,25,0.00,,CLR,0.04,VWS V14.01,2013-06-17 15:02:00,
2013-06-17 11:07:00,79.4,49.4,30.02,SE,143,1.0,2.0,35,0.00,,CLR,0.04,VWS V14.01,2013-06-17 15:07:00,
2013-06-17 11:12:00,79.9,52.8,30.02,South,170,1.0,4.0,39,0.00,,CLR,0.04,VWS V14.01,2013-06-17 15:12:00,
2013-06-17 11:17:00,79.6,54.5,30.01,ENE,63,1.0,4.0,42,0.00,,CLR,0.04,VWS V14.01,2013-06-17 15:17:00,
2013-06-17 11:22:00,79.9,50.6,30.02,SSW,201,0.0,4.0,36,0.00,,CLR,0.04,VWS V14.01,2013-06-17 15:22:00,
2013-06-17 11:27:00,80.1,55.6,30.02,SSE,167,0.0,4.0,43,0.00,,CLR,0.04,VWS V14.01,2013-06-17 15:27:00,
2013-06-17 11:32:00,80.3,55.8,30.02,South,179,1.0,3.0,43,0.00,,CLR,0.04,VWS V14.01,2013-06-17 15:32:00,
2013-06-17 11:37:00,80.3,57.0,30.01,SE,131,1.0,5.0,45,0.00,,CLR,0.04,VWS V14.01,2013-06-17 15:37:00,
2013-06-17 11:42:00,80.4,53.2,30.02,SSW,200,0.0,5.0,39,0.00,,CLR,0.04,VWS V14.01,2013-06-17 15:42:00,
2013-06-17 11:47:00,81.2,54.6,30.02,SSW,200,2.0,5.0,40,0.00,,CLR,0.04,VWS V14.01,2013-06-17 15:47:00,
2013-06-17 11:52:00,81.4,54.1,30.01,SSW,212,0.0,5.0,39,0.00,,CLR,0.04,VWS V14.01,2013-06-17 15:52:00,
2013-06-17 11:57:00,80.9,56.3,30.02,West,276,1.0,5.0,43,0.00,,CLR,0.04,VWS V14.01,2013-06-17 15:57:00,
2013-06-17 12:02:00,80.7,53.5,30.01,SSE,159,2.0,2.0,39,0.00,,CLR,0.04,VWS V14.01,2013-06-17 16:02:00,
2013-06-17 12:07:00,81.6,55.6,30.01,SSW,210,0.0,4.0,41,0.00,,CLR,0.04,VWS V14.01,2013-06-17 16:07:00,
2013-06-17 12:12:00,81.6,57.0,30.01,ESE,105,1.0,4.0,43,0.00,,CLR,0.04,VWS V14.01,2013-06-17 16:12:00,
2013-06-17 12:17:00,81.1,55.9,30.02,ESE,111,1.0,4.0,42,0.00,,CLR,0.04,VWS V14.01,2013-06-17 16:17:00,
2013-06-17 12:22:00,81.2,56.6,30.02,SE,139,0.0,4.0,43,0.00,,CLR,0.04,VWS V14.01,2013-06-17 16:22:00,
2013-06-17 12:27:00,81.7,61.8,30.02,SE,129,2.0,4.0,51,0.00,,CLR,0.04,VWS V14.01,2013-06-17 16:27:00,
2013-06-17 12:32:00,82.6,62.7,30.01,SSE,148,1.0,2.0,51,0.00,,CLR,0.04,VWS V14.01,2013-06-17 16:32:00,
2013-06-17 12:37:00,83.1,60.8,30.01,West,280,1.0,4.0,47,0.00,,CLR,0.04,VWS V14.01,2013-06-17 16:37:00,
2013-06-17 12:42:00,83.1,62.0,30.01,SSW,213,0.0,5.0,49,0.00,,CLR,0.04,VWS V14.01,2013-06-17 16:42:00,
2013-06-17 12:47:00,82.8,64.5,30.00,SSW,195,0.0,5.0,54,0.00,,CLR,0.04,VWS V14.01,2013-06-17 16:47:00,
2013-06-17 12:52:00,83.2,60.3,30.00,SSW,195,0.0,5.0,46,0.00,,CLR,0.04,VWS V14.01,2013-06-17 16:52:00,
2013-06-17 12:57:00,83.4,64.0,30.00,SSE,158,0.0,5.0,52,0.00,,CLR,0.04,VWS V14.01,2013-06-17 16:57:00,
2013-06-17 13:02:00,83.3,64.9,30.00,SSW,200,2.0,4.0,54,0.00,,CLR,0.04,VWS V14.01,2013-06-17 17:02:00,
2013-06-17 13:07:00,83.4,62.8,30.00,SE,143,0.0,4.0,50,0.00,,CLR,0.04,VWS V14.01,2013-06-17 17:07:00,
2013-06-17 13:12:00,83.7,64.2,30.00,SSE,158,3.0,4.0,52,0.00,,CLR,0.04,VWS V14.01,2013-06-17 17:12:00,
2013-06-17 13:17:00,83.3,64.4,30.00,SSE,148,2.0,5.0,53,0.00,,CLR,0.04,VWS V14.01,2013-06-17 17:17:00,
2013-06-17 13:22:00,83.2,64.8,30.00,ESE,107,1.0,5.0,54,0.00,,CLR,0.04,VWS V14.01,2013-06-17 17:22:00,
2013-06-17 13:27:00,83.3,64.4,30.00,SE,140,2.0,5.0,53,0.00,,CLR,0.04,VWS V14.01,2013-06-17 17:27:00,
2013-06-17 13:33:00,83.3,65.5,30.00,South,173,2.0,3.0,55,0.00,,CLR,0.04,VWS V14.01,2013-06-17 17:33:00,
2013-06-17 13:37:00,83.2,63.8,29.99,SE,145,0.0,3.0,52,0.00,,CLR,0.04,VWS V14.01,2013-06-17 17:37:00,
2013-06-17 13:42:00,82.5,62.6,29.99,NE,50,2.0,3.0,51,0.00,,CLR,0.04,VWS V14.01,2013-06-17 17:42:00,
2013-06-17 13:47:00,80.6,57.9,29.99,NE,51,1.0,4.0,46,0.00,,CLR,0.04,VWS V14.01,2013-06-17 17:47:00,
2013-06-17 13:52:00,79.0,55.2,30.01,NNW,337,1.0,4.0,44,0.03,,CLR,0.07,VWS V14.01,2013-06-17 17:52:00,
2013-06-17 13:57:00,76.1,41.6,30.02,ESE,113,0.0,4.0,29,0.40,,CLR,0.44,VWS V14.01,2013-06-17 17:57:00,
2013-06-17 14:02:00,72.9,30.7,30.02,SSW,205,0.0,4.0,21,0.64,,CLR,0.68,VWS V14.01,2013-06-17 18:02:00,
2013-06-17 14:07:00,71.1,-21.5,30.02,West,277,0.0,4.0,2,0.68,,CLR,0.72,VWS V14.01,2013-06-17 18:07:00,
2013-06-17 14:12:00,70.5,0.0,30.03,SSW,195,0.0,4.0,0,0.69,,CLR,0.73,VWS V14.01,2013-06-17 18:12:00,
2013-06-17 14:17:00,70.1,0.0,30.02,South,186,0.0,5.0,0,0.73,,CLR,0.77,VWS V14.01,2013-06-17 18:17:00,
2013-06-17 14:22:00,69.9,0.0,30.02,SSE,156,0.0,5.0,0,0.81,,CLR,0.85,VWS V14.01,2013-06-17 18:22:00,
2013-06-17 14:27:00,69.8,0.0,30.02,SE,129,0.0,5.0,0,0.84,,CLR,0.88,VWS V14.01,2013-06-17 18:27:00,
2013-06-17 14:32:00,69.6,0.0,30.02,SE,136,0.0,1.0,0,0.84,,CLR,0.88,VWS V14.01,2013-06-17 18:32:00,
2013-06-17 14:37:00,69.8,0.0,30.01,SE,136,0.0,1.0,0,0.86,,CLR,0.90,VWS V14.01,2013-06-17 18:37:00,
2013-06-17 14:42:00,70.1,0.0,30.00,SE,137,0.0,1.0,0,0.86,,CLR,0.90,VWS V14.01,2013-06-17 18:42:00,
2013-06-17 14:47:00,70.4,0.0,30.00,SSE,152,0.0,1.0,0,0.86,,CLR,0.90,VWS V14.01,2013-06-17 18:47:00,
2013-06-17 14:52:00,70.9,0.0,30.00,SSE,152,0.0,1.0,0,0.86,,CLR,0.90,VWS V14.01,2013-06-17 18:52:00,
2013-06-17 14:57:00,71.1,0.0,30.00,South,179,2.0,2.0,0,0.86,,CLR,0.90,VWS V14.01,2013-06-17 18:57:00,
2013-06-17 15:02:00,71.5,0.0,30.00,South,170,0.0,3.0,0,0.32,,CLR,0.90,VWS V14.01,2013-06-17 19:02:00,
2013-06-17 15:07:00,72.0,0.0,30.01,South,187,1.0,4.0,0,0.32,,CLR,0.90,VWS V14.01,2013-06-17 19:07:00,
2013-06-17 15:13:00,71.9,0.0,30.00,SSW,210,0.0,4.0,0,0.32,,CLR,0.90,VWS V14.01,2013-06-17 19:13:00,
2013-06-17 15:17:00,72.3,0.0,30.00,South,176,0.0,4.0,0,0.32,,CLR,0.90,VWS V14.01,2013-06-17 19:17:00,
2013-06-17 15:23:00,73.5,0.0,29.99,SSW,212,1.0,4.0,0,0.32,,CLR,0.90,VWS V14.01,2013-06-17 19:23:00,
2013-06-17 15:28:00,74.2,0.0,29.99,SSE,163,0.0,4.0,0,0.32,,CLR,0.90,VWS V14.01,2013-06-17 19:28:00,
2013-06-17 15:33:00,74.4,0.0,29.99,West,260,0.0,1.0,0,0.02,,CLR,0.90,VWS V14.01,2013-06-17 19:33:00,
2013-06-17 15:38:00,74.7,0.0,29.99,West,260,0.0,1.0,0,0.02,,CLR,0.90,VWS V14.01,2013-06-17 19:38:00,
2013-06-17 15:43:00,74.6,0.0,29.98,West,260,0.0,1.0,0,0.02,,CLR,0.90,VWS V14.01,2013-06-17 19:43:00,
2013-06-17 15:48:00,74.7,0.0,29.98,West,260,0.0,1.0,0,0.02,,CLR,0.90,VWS V14.01,2013-06-17 19:48:00,
2013-06-17 15:53:00,75.3,0.0,29.98,SSE,165,0.0,3.0,0,0.02,,CLR,0.90,VWS V14.01,2013-06-17 19:53:00,
2013-06-17 15:58:00,75.6,0.0,29.98,SSE,166,1.0,3.0,0,0.02,,CLR,0.90,VWS V14.01,2013-06-17 19:58:00,
2013-06-17 16:03:00,76.1,0.0,29.98,SW,222,2.0,2.0,0,0.00,,CLR,0.90,VWS V14.01,2013-06-17 20:03:00,
2013-06-17 16:08:00,76.2,0.0,29.98,SSW,210,1.0,2.0,0,0.00,,CLR,0.90,VWS V14.01,2013-06-17 20:08:00,
2013-06-17 16:13:00,76.4,0.0,29.98,South,169,2.0,4.0,0,0.00,,CLR,0.90,VWS V14.01,2013-06-17 20:13:00,
2013-06-17 16:18:00,76.4,0.0,29.98,SSE,148,2.0,4.0,0,0.00,,CLR,0.90,VWS V14.01,2013-06-17 20:18:00,
2013-06-17 16:23:00,76.4,0.0,29.98,SW,215,0.0,4.0,0,0.00,,CLR,0.90,VWS V14.01,2013-06-17 20:23:00,
2013-06-17 16:28:00,76.4,-4.2,29.98,SSE,159,0.0,4.0,4,0.00,,CLR,0.90,VWS V14.01,2013-06-17 20:28:00,
2013-06-17 16:33:00,76.4,10.8,29.98,SSW,200,1.0,3.0,8,0.00,,CLR,0.90,VWS V14.01,2013-06-17 20:33:00,
2013-06-17 16:38:00,76.2,7.7,29.97,SW,226,1.0,3.0,7,0.00,,CLR,0.90,VWS V14.01,2013-06-17 20:38:00,
2013-06-17 16:43:00,76.4,15.9,29.98,SSW,207,3.0,4.0,10,0.00,,CLR,0.90,VWS V14.01,2013-06-17 20:43:00,
2013-06-17 16:48:00,76.5,34.9,29.97,South,184,0.0,5.0,22,0.00,,CLR,0.90,VWS V14.01,2013-06-17 20:48:00,
2013-06-17 16:53:00,76.4,34.8,29.97,SSW,212,0.0,5.0,22,0.00,,CLR,0.90,VWS V14.01,2013-06-17 20:53:00,
2013-06-17 16:58:00,76.3,32.3,29.97,SE,139,0.0,5.0,20,0.00,,CLR,0.90,VWS V14.01,2013-06-17 20:58:00,
2013-06-17 17:03:00,76.4,29.8,29.97,SSW,212,1.0,4.0,18,0.00,,CLR,0.90,VWS V14.01,2013-06-17 21:03:00,
2013-06-17 17:08:00,76.6,23.9,29.97,South,188,1.0,4.0,14,0.00,,CLR,0.90,VWS V14.01,2013-06-17 21:08:00,
2013-06-17 17:13:00,76.5,15.9,29.97,SSW,200,1.0,4.0,10,0.00,,CLR,0.90,VWS V14.01,2013-06-17 21:13:00,
2013-06-17 17:18:00,76.4,18.0,29.97,SSE,153,0.0,4.0,11,0.00,,CLR,0.90,VWS V14.01,2013-06-17 21:18:00,
2013-06-17 17:23:00,76.2,15.7,29.97,SSW,202,0.0,4.0,10,0.00,,CLR,0.90,VWS V14.01,2013-06-17 21:23:00,
2013-06-17 17:28:00,76.0,26.6,29.97,SSW,195,0.0,4.0,16,0.00,,CLR,0.90,VWS V14.01,2013-06-17 21:28:00,
2013-06-17 17:33:00,76.0,26.6,29.97,South,174,0.0,2.0,16,0.00,,CLR,0.90,VWS V14.01,2013-06-17 21:33:00,
2013-06-17 17:38:00,76.2,23.6,29.97,SSW,210,0.0,2.0,14,0.00,,CLR,0.90,VWS V14.01,2013-06-17 21:38:00,
2013-06-17 17:43:00,76.1,19.9,29.97,SSW,210,0.0,2.0,12,0.00,,CLR,0.90,VWS V14.01,2013-06-17 21:43:00,
2013-06-17 17:48:00,76.2,0.4,29.97,SSW,210,0.0,2.0,5,0.00,,CLR,0.90,VWS V14.01,2013-06-17 21:48:00,
2013-06-17 17:53:00,76.0,19.8,29.97,SSW,210,0.0,2.0,12,0.00,,CLR,0.90,VWS V14.01,2013-06-17 21:53:00,
2013-06-17 17:58:00,75.9,19.7,29.97,SSW,210,0.0,2.0,12,0.00,,CLR,0.90,VWS V14.01,2013-06-17 21:58:00,
2013-06-17 18:03:00,75.8,19.6,29.97,SSW,210,0.0,1.0,12,0.00,,CLR,0.90,VWS V14.01,2013-06-17 22:03:00,
2013-06-17 18:08:00,75.9,23.3,29.97,SSW,210,0.0,1.0,14,0.00,,CLR,0.90,VWS V14.01,2013-06-17 22:08:00,
2013-06-17 18:13:00,75.8,31.9,29.97,SSW,210,0.0,1.0,20,0.00,,CLR,0.90,VWS V14.01,2013-06-17 22:13:00,
2013-06-17 18:18:00,75.9,33.2,29.96,SSW,210,0.0,1.0,21,0.00,,CLR,0.90,VWS V14.01,2013-06-17 22:18:00,
2013-06-17 18:23:00,75.9,34.4,29.97,SSW,210,0.0,1.0,22,0.00,,CLR,0.90,VWS V14.01,2013-06-17 22:23:00,
2013-06-17 18:28:00,75.9,19.7,29.96,SSW,210,0.0,1.0,12,0.00,,CLR,0.90,VWS V14.01,2013-06-17 22:28:00,
2013-06-17 18:33:00,75.3,28.9,29.97,SSW,210,0.0,0.0,18,0.00,,CLR,0.90,VWS V14.01,2013-06-17 22:33:00,
2013-06-17 18:38:00,75.5,-31.6,29.96,SSW,210,0.0,0.0,1,0.00,,CLR,0.90,VWS V14.01,2013-06-17 22:38:00,
2013-06-17 18:43:00,75.2,-0.3,29.97,SSW,210,0.0,0.0,5,0.00,,CLR,0.90,VWS V14.01,2013-06-17 22:43:00,
2013-06-17 18:48:00,75.3,17.2,29.97,SSW,210,0.0,1.0,11,0.00,,CLR,0.90,VWS V14.01,2013-06-17 22:48:00,
2013-06-17 18:53:00,75.6,19.5,29.97,SSW,210,0.0,1.0,12,0.00,,CLR,0.90,VWS V14.01,2013-06-17 22:53:00,
2013-06-17 18:58:00,76.0,-31.3,29.97,SSW,210,0.0,1.0,1,0.00,,CLR,0.90,VWS V14.01,2013-06-17 22:58:00,
2013-06-17 19:03:00,75.8,-4.6,29.97,SSW,210,0.0,0.0,4,0.00,,CLR,0.90,VWS V14.01,2013-06-17 23:03:00,
2013-06-17 19:08:00,75.5,-0.1,29.97,SSW,210,0.0,0.0,5,0.00,,CLR,0.90,VWS V14.01,2013-06-17 23:08:00,
2013-06-17 19:13:00,75.0,0.0,29.96,SSW,210,0.0,0.0,0,0.00,,CLR,0.90,VWS V14.01,2013-06-17 23:13:00,
2013-06-17 19:18:00,74.8,0.0,29.96,SSW,210,0.0,0.0,0,0.00,,CLR,0.90,VWS V14.01,2013-06-17 23:18:00,
2013-06-17 19:23:00,74.8,0.0,29.96,SSW,210,0.0,0.0,0,0.00,,CLR,0.90,VWS V14.01,2013-06-17 23:23:00,
2013-06-17 19:28:00,74.7,0.0,29.96,SSW,210,0.0,0.0,0,0.00,,CLR,0.90,VWS V14.01,2013-06-17 23:28:00,
2013-06-17 19:33:00,74.5,0.0,29.96,SSW,210,0.0,0.0,0,0.00,,CLR,0.90,VWS V14.01,2013-06-17 23:33:00,
2013-06-17 19:38:00,74.5,0.0,29.96,SSW,210,0.0,0.0,0,0.00,,CLR,0.90,VWS V14.01,2013-06-17 23:38:00,
2013-06-17 19:43:00,74.3,0.0,29.96,SSW,210,0.0,0.0,0,0.00,,CLR,0.90,VWS V14.01,2013-06-17 23:43:00,
2013-06-17 19:48:00,74.1,0.0,29.96,SSW,210,0.0,0.0,0,0.00,,CLR,0.90,VWS V14.01,2013-06-17 23:48:00,
2013-06-17 19:53:00,74.1,0.0,29.96,SSW,210,0.0,0.0,0,0.00,,CLR,0.90,VWS V14.01,2013-06-17 23:53:00,
2013-06-17 19:58:00,74.0,0.0,29.96,SSW,210,0.0,0.0,0,0.00,,CLR,0.90,VWS V14.01,2013-06-17 23:58:00,
2013-06-17 20:03:00,73.9,0.0,29.96,SSW,210,0.0,0.0,0,0.00,,CLR,0.90,VWS V14.01,2013-06-18 00:03:00,
2013-06-17 20:08:00,73.8,0.0,29.97,SSW,210,0.0,0.0,0,0.00,,CLR,0.90,VWS V14.01,2013-06-18 00:08:00,
2013-06-17 20:13:00,73.6,0.0,29.96,SSW,210,0.0,0.0,0,0.00,,CLR,0.90,VWS V14.01,2013-06-18 00:13:00,
2013-06-17 20:18:00,73.4,0.0,29.96,SSW,210,0.0,0.0,0,0.00,,CLR,0.90,VWS V14.01,2013-06-18 00:18:00,
2013-06-17 20:23:00,73.2,0.0,29.96,SSW,210,0.0,0.0,0,0.00,,CLR,0.90,VWS V14.01,2013-06-18 00:23:00,
2013-06-17 20:28:00,73.0,0.0,29.96,SSW,210,0.0,0.0,0,0.00,,CLR,0.90,VWS V14.01,2013-06-18 00:28:00,
2013-06-17 20:33:00,72.9,0.0,29.97,SSW,210,0.0,0.0,0,0.00,,CLR,0.90,VWS V14.01,2013-06-18 00:33:00,
2013-06-17 20:38:00,72.8,0.0,29.97,SSW,210,0.0,0.0,0,0.00,,CLR,0.90,VWS V14.01,2013-06-18 00:38:00,
2013-06-17 20:43:00,72.6,0.0,29.97,SSW,210,0.0,0.0,0,0.00,,CLR,0.90,VWS V14.01,2013-06-18 00:43:00,
2013-06-17 20:48:00,72.4,0.0,29.97,SSW,210,0.0,0.0,0,0.00,,CLR,0.90,VWS V14.01,2013-06-18 00:48:00,
2013-06-17 20:53:00,72.4,0.0,29.97,SSW,210,0.0,0.0,0,0.00,,CLR,0.90,VWS V14.01,2013-06-18 00:53:00,
2013-06-17 20:58:00,72.3,0.0,29.97,SSW,210,0.0,0.0,0,0.00,,CLR,0.90,VWS V14.01,2013-06-18 00:58:00,
2013-06-17 21:03:00,72.3,0.0,29.97,SSW,210,0.0,0.0,0,0.00,,CLR,0.90,VWS V14.01,2013-06-18 01:03:00,
2013-06-17 21:08:00,72.2,0.0,29.97,SSW,210,0.0,0.0,0,0.00,,CLR,0.90,VWS V14.01,2013-06-18 01:08:00,
2013-06-17 21:13:00,72.1,0.0,29.98,SSW,210,0.0,0.0,0,0.00,,CLR,0.90,VWS V14.01,2013-06-18 01:13:00,
2013-06-17 21:18:00,72.0,0.0,29.97,SSW,210,0.0,0.0,0,0.00,,CLR,0.90,VWS V14.01,2013-06-18 01:18:00,
2013-06-17 21:23:00,71.9,0.0,29.97,SSW,210,0.0,0.0,0,0.00,,CLR,0.90,VWS V14.01,2013-06-18 01:23:00,
2013-06-17 21:28:00,71.9,0.0,29.98,SSW,210,0.0,0.0,0,0.00,,CLR,0.90,VWS V14.01,2013-06-18 01:28:00,
2013-06-17 21:33:00,71.9,0.0,29.98,SSW,210,0.0,0.0,0,0.00,,CLR,0.90,VWS V14.01,2013-06-18 01:33:00,
2013-06-17 21:38:00,71.9,0.0,29.98,SSW,209,0.0,0.0,0,0.00,,CLR,0.90,VWS V14.01,2013-06-18 01:38:00,
2013-06-17 21:43:00,71.9,0.0,29.98,SSW,210,0.0,0.0,0,0.00,,CLR,0.90,VWS V14.01,2013-06-18 01:43:00,
2013-06-17 21:48:00,71.9,0.0,29.98,SSW,210,0.0,1.0,0,0.00,,CLR,0.90,VWS V14.01,2013-06-18 01:48:00,
2013-06-17 21:53:00,71.8,0.0,29.97,SSW,210,0.0,1.0,0,0.00,,CLR,0.90,VWS V14.01,2013-06-18 01:53:00,
2013-06-17 21:58:00,71.8,0.0,29.97,SSW,210,0.0,1.0,0,0.00,,CLR,0.90,VWS V14.01,2013-06-18 01:58:00,
2013-06-17 22:03:00,71.7,0.0,29.98,SSW,210,0.0,0.0,0,0.00,,CLR,0.90,VWS V14.01,2013-06-18 02:03:00,
2013-06-17 22:08:00,71.6,0.0,29.98,SSW,210,0.0,0.0,0,0.00,,CLR,0.90,VWS V14.01,2013-06-18 02:08:00,
2013-06-17 22:13:00,71.7,0.0,29.99,SSW,210,0.0,0.0,0,0.00,,CLR,0.90,VWS V14.01,2013-06-18 02:13:00,
2013-06-17 22:19:00,71.6,0.0,29.99,SSW,210,0.0,0.0,0,0.00,,CLR,0.90,VWS V14.01,2013-06-18 02:19:00,
2013-06-17 22:24:00,71.5,0.0,29.99,SSW,210,0.0,0.0,0,0.00,,CLR,0.90,VWS V14.01,2013-06-18 02:24:00,
2013-06-17 22:29:00,71.4,0.0,29.99,SSW,210,0.0,0.0,0,0.00,,CLR,0.90,VWS V14.01,2013-06-18 02:29:00,
2013-06-17 22:34:00,71.3,0.0,29.99,SSW,210,0.0,0.0,0,0.00,,CLR,0.90,VWS V14.01,2013-06-18 02:34:00,
2013-06-17 22:39:00,71.3,0.0,30.00,SSW,210,0.0,0.0,0,0.00,,CLR,0.90,VWS V14.01,2013-06-18 02:39:00,
2013-06-17 22:44:00,71.3,0.0,30.00,SSW,210,0.0,0.0,0,0.00,,CLR,0.90,VWS V14.01,2013-06-18 02:44:00,
2013-06-17 22:49:00,71.3,0.0,30.00,SSW,210,0.0,0.0,0,0.00,,CLR,0.90,VWS V14.01,2013-06-18 02:49:00,
2013-06-17 22:54:00,71.2,0.0,30.00,SSW,210,0.0,0.0,0,0.00,,CLR,0.90,VWS V14.01,2013-06-18 02:54:00,
2013-06-17 22:59:00,71.2,0.0,30.00,SSW,209,0.0,0.0,0,0.00,,CLR,0.90,VWS V14.01,2013-06-18 02:59:00,
2013-06-17 23:04:00,71.5,0.0,30.00,SSW,194,0.0,1.0,0,0.00,,CLR,0.90,VWS V14.01,2013-06-18 03:04:00,
2013-06-17 23:09:00,71.8,0.0,30.00,South,180,0.0,2.0,0,0.00,,CLR,0.90,VWS V14.01,2013-06-18 03:09:00,
2013-06-17 23:14:00,72.0,0.0,30.00,South,191,0.0,3.0,0,0.00,,CLR,0.90,VWS V14.01,2013-06-18 03:14:00,
2013-06-17 23:19:00,72.0,0.0,29.99,South,172,0.0,3.0,0,0.00,,CLR,0.90,VWS V14.01,2013-06-18 03:19:00,
2013-06-17 23:24:00,72.1,0.0,30.00,SSE,168,0.0,3.0,0,0.00,,CLR,0.90,VWS V14.01,2013-06-18 03:24:00,
2013-06-17 23:29:00,72.1,0.0,30.00,SSE,162,1.0,3.0,0,0.00,,CLR,0.90,VWS V14.01,2013-06-18 03:29:00,
2013-06-17 23:35:00,72.1,0.0,30.00,SSE,162,0.0,0.0,0,0.00,,CLR,0.90,VWS V14.01,2013-06-18 03:35:00,
2013-06-17 23:40:00,72.0,0.0,30.00,SSE,162,0.0,0.0,0,0.00,,CLR,0.90,VWS V14.01,2013-06-18 03:40:00,
2013-06-17 23:45:00,72.1,0.0,30.00,SSE,162,0.0,0.0,0,0.00,,CLR,0.90,VWS V14.01,2013-06-18 03:45:00,
2013-06-17 23:50:00,72.0,0.0,29.99,SSE,159,0.0,2.0,0,0.00,,CLR,0.90,VWS V14.01,2013-06-18 03:50:00,
2013-06-17 23:55:00,72.0,0.0,29.99,SSW,194,1.0,2.0,0,0.00,,CLR,0.90,VWS V14.01,2013-06-18 03:55:00,